Regional Weather Roundup
Issued by NWS Cleveland, OH

Home | Current Version | Previous Version | Graphics & Text | Print | Product List | Glossary On
Versions: 1 2 3 4 5 6 7 8 9 10 11 12 13 14 15 16 17 18 19 20 21 22 23 24 25 26 27 28 29 30 31 32 33 34 35 36 37 38 39 40 41 42 43 44 45 46 47 48 49 50
000
ASUS41 KCLE 280110
RWRCLE
OHIO REGIONAL WEATHER ROUNDUP
NATIONAL WEATHER SERVICE WILMINGTON, OH
800 PM EST FRI FEB 27 2015

NOTE: "FAIR" INDICATES FEW OR NO CLOUDS BELOW 12,000 FEET WITH NO
SIGNIFICANT WEATHER AND/OR OBSTRUCTIONS TO VISIBILITY.

OHZ001>008-015>018-024>027-034-035-043-044-280200-
   NORTHWEST OHIO

CITY           SKY/WX    TMP DP  RH WIND       PRES   REMARKS
DEFIANCE       CLEAR      7  -3  64 CALM      30.63R
FINDLAY        CLEAR      5  -6  60 S3        30.62R
TOLEDO EXPRESS FAIR       7  -4  60 SW5       30.62R WCI  -2
TOLEDO EXEC    CLEAR      8  -4  58 SW6       30.63R WCI  -2
LIMA           CLEAR     10  -4  53 S6        30.61R WCI   0
$$

OHZ009>014-019>023-028>033-038-089-280200-
   NORTHEAST OHIO

CITY           SKY/WX    TMP DP  RH WIND       PRES   REMARKS
CLE-HOPKINS    CLEAR      8  -3  61 SW5       30.64R WCI   0
CLE-LAKEFRONT  FAIR       9  -2  61 SW6       30.63R WCI  -1
CUY CO. ARPT   CLEAR     10   3  72 SW6       30.61R WCI   1
LORAIN-ELYRIA  CLEAR      5  -4  66 SW3       30.62R
ASHTABULA      CLEAR      3  -7  63 CALM      30.61R
AKRON-CANTON   CLEAR      9  -5  53 CALM      30.58R
WOOSTER        CLEAR      3  -6  66 CALM      30.60R
MANSFIELD      CLEAR      7  -4  60 SW5       30.58R WCI  -2
YOUNGSTOWN     PTCLDY     8  -4  58 CALM      30.57R
$$

OHZ042-051>053-060>062-070>072-077>081-280200-
  SOUTHWEST OHIO

CITY           SKY/WX    TMP DP  RH WIND       PRES   REMARKS
CINC-COVINGTON PTCLDY    16   1  51 N7        30.61R WCI   6
CINC-LUNKEN    CLEAR     15   1  53 NE3       30.66R
HAMILTON       CLEAR      9  -1  64 N6        30.65R WCI  -1
DAYTON         CLEAR     12   0  58 NE5       30.62R WCI   4
WRIGHT-PAT AFB PTCLDY    12  -1  55 N2        30.63R
DAYTON GENERAL CLEAR     14   1  56 CALM      30.61R
WILMINGTON     CLEAR      9  -3  58 NE5       30.61R WCI   1
$$

OHZ036-037-039>041-045>050-054>059-063>069-073>076-082>088-280200-
  CENTRAL AND SOUTHEAST OHIO

CITY           SKY/WX    TMP DP  RH WIND       PRES   REMARKS
COLUMBUS       CLEAR     13  -3  49 N6        30.63R WCI   4
OSU AIRPORT    CLEAR     11  -3  53 NW5       30.62R WCI   3
BOLTON FIELD   PTCLDY   N/A N/A N/A NW3       30.63R
RICKENBACK AFB CLEAR     12  -3  52 NW5       30.63R WCI   4
NEWARK         CLEAR      5  -3  69 CALM      30.62R
MARION         CLEAR      5  -6  60 CALM      30.62R
LANCASTER      CLEAR     12  -2  53 CALM      30.63R
ZANESVILLE     MOCLDY    14   4  64 CALM      30.61R
NEW PHILLY     FAIR      11  -1  58 CALM      30.62R
$$


USA.gov is the U.S. government's official web portal to all federal, state and local government web resources and services.